Location: Barrio Las Umbrías
(40.4173°N, 4.8685°W)
Time: 12:31:56
(UTC+00:00)

ARIANE 5 R/B - Pass Details

Date: 17 August 2022
Orbit: 621 x 654 km, 98.1° (Epoch: 23 September)

Event Time Altitude Azimuth Distance (km) Brightness Sun altitude
Exits shadow 21:51:21 31° 38° (NE) 1,113 3.9 -25.8°
Drops below altitude 10° 21:54:12 10° 5° (N) 2,007 5.7 -26.2°
Sets 21:56:32 0° 357° (N) 2,923 6.8 -26.5°
